{"data":{"norad_id":43803,"epoch":"2026-05-25T02:57:29.246688Z","epoch_age_seconds":67584,"freshness":"FRESH","line1":"1 43803U 18099AX  26145.12325517  .00017180  00000+0  54389-3 0  9997","line2":"2 43803  97.4146 207.8899 0005078  10.2287 349.9057 15.32808116410090","mean_motion":15.32808116,"eccentricity":0.0005078,"inclination_deg":97.4146,"raan_deg":207.8899,"arg_perigee_deg":10.2287,"mean_anomaly_deg":349.9057,"bstar":0.00054389,"rev_number":41009,"period_min":93.945222821354,"perigee_km":463.96256589825,"apogee_km":470.9149326292,"semimajor_km":6845.5757492637,"source":"CELESTRAK","updated_at":"2026-05-25T13:38:23.289243Z"}}